| time (UTC) | temp F | wind direction | speed knots | gust knots | rain 1hr in | rain 24hr in | rain mn in | humidity % | barometer mb |
| 20260906211007 | 71 | 79 | 1.7 | 6.1 | 0.00 | 0.00 | 0.00 | 70 | 1016.1 |
| 20260906210506 | 71 | 93 | 1.7 | 6.1 | 0.00 | 0.00 | 0.00 | 71 | 1016.1 |
| 20260906205507 | 71 | 55 | 2.6 | 4.3 | 0.00 | 0.00 | 0.00 | 72 | 1016.1 |
| 20260906205007 | 71 | 48 | 1.7 | 6.1 | 0.00 | 0.00 | 0.00 | 72 | 1016.1 |
| 20260906204506 | 71 | 56 | 4.3 | 6.1 | 0.00 | 0.00 | 0.00 | 72 | 1016.1 |
| 20260906204006 | 71 | 86 | 3.5 | 6.1 | 0.00 | 0.00 | 0.00 | 72 | 1016.1 |
| 20260906203507 | 70 | 82 | 4.3 | 6.1 | 0.00 | 0.00 | 0.00 | 72 | 1016.1 |
| 20260906203007 | 71 | 80 | 1.7 | 6.1 | 0.00 | 0.00 | 0.00 | 72 | 1016.1 |
| 20260906202506 | 70 | 51 | 4.3 | 6.1 | 0.00 | 0.00 | 0.00 | 73 | 1016.1 |
| 20260906202007 | 71 | 83 | 2.6 | 6.1 | 0.00 | 0.00 | 0.00 | 73 | 1016.1 |
| 20260906201506 | 70 | 63 | 4.3 | 6.1 | 0.00 | 0.00 | 0.00 | 73 | 1016.1 |
| 20260906200507 | 70 | 70 | 4.3 | 6.1 | 0.00 | 0.00 | 0.00 | 73 | 1016.1 |
| 20260906200006 | 70 | 69 | 4.3 | 6.1 | 0.00 | 0.00 | 0.00 | 74 | 1016.1 |
| 20260906195506 | 70 | 75 | 4.3 | 6.1 | 0.00 | 0.00 | 0.00 | 74 | 1016.1 |
| 20260906195007 | 70 | 58 | 4.3 | 6.1 | 0.00 | 0.00 | 0.00 | 74 | 1016.1 |
| 20260906194007 | 69 | 49 | 4.3 | 6.1 | 0.00 | 0.00 | 0.00 | 75 | 1016.4 |
| 20260906192506 | 69 | 81 | 4.3 | 10.4 | 0.00 | 0.00 | 0.00 | 76 | 1017.1 |
| 20260906192006 | 69 | 82 | 6.1 | 10.4 | 0.00 | 0.00 | 0.00 | 76 | 1017.1 |
| 20260906191506 | 69 | 75 | 4.3 | 7.8 | 0.00 | 0.00 | 0.00 | 76 | 1017.1 |
| 20260906191007 | 68 | 63 | 6.1 | 7.8 | 0.00 | 0.00 | 0.00 | 77 | 1017.1 |
| 20260906190506 | 68 | 81 | 6.1 | 10.4 | 0.00 | 0.00 | 0.00 | 77 | 1017.1 |
| 20260906190007 | 68 | 100 | 7.8 | 10.4 | 0.00 | 0.00 | 0.00 | 77 | 1017.1 |
| 20260906185506 | 68 | 92 | 7.8 | 10.4 | 0.00 | 0.00 | 0.00 | 77 | 1017.1 |
| 20260906185006 | 68 | 76 | 7.8 | 10.4 | 0.00 | 0.00 | 0.00 | 77 | 1017.1 |
| 20260906184506 | 68 | 86 | 6.1 | 10.4 | 0.00 | 0.00 | 0.00 | 77 | 1017.1 |
| 20260906184006 | 68 | 81 | 7.8 | 12.2 | 0.00 | 0.00 | 0.00 | 77 | 1017.1 |
| 20260906183007 | 67 | 98 | 7.8 | 12.2 | 0.00 | 0.00 | 0.00 | 78 | 1017.1 |
| 20260906182505 | 67 | 85 | 7.8 | 13.9 | 0.00 | 0.00 | 0.00 | 78 | 1017.1 |
| 20260906182006 | 67 | 92 | 9.6 | 13.9 | 0.00 | 0.00 | 0.00 | 78 | 1017.1 |
| 20260906181505 | 68 | 88 | 7.8 | 13.9 | 0.00 | 0.00 | 0.00 | 79 | 1017.1 |
| 20260906181007 | 67 | 87 | 7.8 | 13.9 | 0.00 | 0.00 | 0.00 | 78 | 1017.1 |
| 20260906180506 | 67 | 66 | 8.7 | 13.9 | 0.00 | 0.00 | 0.00 | 79 | 1017.1 |
| 20260906180006 | 67 | 67 | 7.8 | 12.2 | 0.00 | 0.00 | 0.00 | 79 | 1017.1 |
| 20260906175505 | 67 | 70 | 6.1 | 7.8 | 0.00 | 0.00 | 0.00 | 79 | 1017.1 |
| 20260906174506 | 67 | 74 | 7.8 | 10.4 | 0.00 | 0.00 | 0.00 | 79 | 1017.1 |
| 20260906174006 | 67 | 76 | 7.8 | 12.2 | 0.00 | 0.00 | 0.00 | 80 | 1017.1 |
| 20260906173506 | 67 | 77 | 7.8 | 12.2 | 0.00 | 0.00 | 0.00 | 80 | 1017.1 |
| 20260906173006 | 68 | 75 | 6.1 | 10.4 | 0.00 | 0.00 | 0.00 | 80 | 1017.1 |
| 20260906172506 | 67 | 65 | 6.1 | 10.4 | 0.00 | 0.00 | 0.00 | 80 | 1017.1 |
| 20260906172006 | 67 | 78 | 7.8 | 10.4 | 0.00 | 0.00 | 0.00 | 80 | 1017.1 |
| 20260906171006 | 67 | 70 | 7.8 | 12.2 | 0.00 | 0.00 | 0.00 | 81 | 1017.1 |
| 20260906170507 | 67 | 75 | 7.8 | 12.2 | 0.00 | 0.00 | 0.00 | 81 | 1017.1 |
| 20260906170006 | 67 | 75 | 7.8 | 12.2 | 0.00 | 0.00 | 0.00 | 81 | 1017.1 |
| 20260906165506 | 67 | 79 | 7.8 | 12.2 | 0.00 | 0.00 | 0.00 | 81 | 1017.1 |
| 20260906165006 | 67 | 72 | 7.8 | 12.2 | 0.00 | 0.00 | 0.00 | 81 | 1017.1 |
| 20260906164505 | 67 | 83 | 7.8 | 12.2 | 0.00 | 0.00 | 0.00 | 81 | 1017.1 |
| 20260906164007 | 67 | 76 | 7.8 | 13.9 | 0.00 | 0.00 | 0.00 | 81 | 1017.1 |
| 20260906163006 | 67 | 75 | 7.8 | 12.2 | 0.00 | 0.00 | 0.00 | 83 | 1017.1 |
| 20260906162505 | 67 | 66 | 10.4 | 12.2 | 0.00 | 0.00 | 0.00 | 83 | 1017.1 |
| 20260906161506 | 67 | 77 | 10.4 | 13.9 | 0.00 | 0.00 | 0.00 | 81 | 1017.1 |
| 20260906161007 | 67 | 74 | 9.6 | 13.9 | 0.00 | 0.00 | 0.00 | 82 | 1017.1 |
| 20260906160506 | 67 | 74 | 10.4 | 13.9 | 0.00 | 0.00 | 0.00 | 81 | 1017.1 |
| 20260906160005 | 67 | 73 | 10.4 | 13.9 | 0.00 | 0.00 | 0.00 | 83 | 1017.1 |
| 20260906155505 | 67 | 74 | 10.4 | 13.9 | 0.00 | 0.00 | 0.00 | 83 | 1017.1 |
| 20260906155006 | 67 | 78 | 10.4 | 13.9 | 0.00 | 0.00 | 0.00 | 83 | 1017.1 |
| 20260906154506 | 67 | 65 | 10.4 | 13.9 | 0.00 | 0.00 | 0.00 | 83 | 1017.1 |
| 20260906153506 | 67 | 75 | 8.7 | 12.2 | 0.00 | 0.00 | 0.00 | 83 | 1017.1 |
| 20260906153007 | 67 | 61 | 10.4 | 15.6 | 0.00 | 0.00 | 0.00 | 83 | 1016.1 |
| 20260906152505 | 67 | 78 | 12.2 | 15.6 | 0.00 | 0.00 | 0.00 | 83 | 1016.1 |
| 20260906151506 | 67 | 79 | 10.4 | 15.6 | 0.00 | 0.00 | 0.00 | 83 | 1016.1 |
| 20260906151006 | 67 | 85 | 12.2 | 15.6 | 0.00 | 0.00 | 0.00 | 82 | 1016.1 |
| 20260906150506 | 67 | 76 | 10.4 | 13.9 | 0.00 | 0.00 | 0.00 | 83 | 1016.1 |
| 20260906150006 | 67 | 79 | 12.2 | 13.9 | 0.00 | 0.00 | 0.00 | 83 | 1016.1 |
| 20260906145506 | 67 | 66 | 12.2 | 13.9 | 0.00 | 0.00 | 0.00 | 83 | 1016.1 |
| 20260906145006 | 67 | 83 | 10.4 | 13.9 | 0.00 | 0.00 | 0.00 | 83 | 1016.1 |
| 20260906144505 | 67 | 75 | 12.2 | 13.9 | 0.00 | 0.00 | 0.00 | 83 | 1016.1 |
| 20260906144006 | 67 | 83 | 10.4 | 13.9 | 0.00 | 0.00 | 0.00 | 83 | 1016.1 |
| 20260906142006 | 67 | 80 | 10.4 | 15.6 | 0.00 | 0.00 | 0.00 | 83 | 1016.1 |
| 20260906141006 | 67 | 68 | 10.4 | 15.6 | 0.00 | 0.00 | 0.00 | 83 | 1016.1 |
| 20260906140006 | 67 | 72 | 10.4 | 13.9 | 0.00 | 0.00 | 0.00 | 83 | 1016.1 |
| 20260906135505 | 67 | 67 | 10.4 | 12.2 | 0.00 | 0.00 | 0.00 | 83 | 1016.1 |
| 20260906135006 | 67 | 66 | 10.4 | 13.9 | 0.00 | 0.00 | 0.00 | 84 | 1016.1 |
| 20260906134506 | 67 | 64 | 8.7 | 13.9 | 0.00 | 0.00 | 0.00 | 85 | 1016.1 |
| 20260906134006 | 67 | 66 | 10.4 | 13.9 | 0.00 | 0.00 | 0.00 | 84 | 1016.1 |
| 20260906133506 | 67 | 72 | 7.8 | 10.4 | 0.00 | 0.00 | 0.00 | 84 | 1016.1 |
| 20260906133006 | 67 | 64 | 10.4 | 12.2 | 0.00 | 0.00 | 0.00 | 84 | 1016.1 |
| 20260906132506 | 67 | 58 | 10.4 | 12.2 | 0.00 | 0.00 | 0.00 | 85 | 1016.1 |
| 20260906132006 | 67 | 72 | 10.4 | 12.2 | 0.00 | 0.00 | 0.00 | 85 | 1016.1 |
| 20260906131505 | 67 | 72 | 10.4 | 15.6 | 0.00 | 0.00 | 0.00 | 85 | 1016.1 |
| 20260906131006 | 67 | 68 | 10.4 | 15.6 | 0.00 | 0.00 | 0.00 | 85 | 1016.1 |
| 20260906130506 | 67 | 65 | 10.4 | 12.2 | 0.00 | 0.00 | 0.00 | 85 | 1016.1 |
| 20260906130006 | 67 | 80 | 10.4 | 12.2 | 0.00 | 0.00 | 0.00 | 85 | 1016.1 |
| 20260906125505 | 67 | 73 | 10.4 | 13.9 | 0.00 | 0.00 | 0.00 | 85 | 1016.1 |
| 20260906124505 | 67 | 74 | 10.4 | 13.9 | 0.00 | 0.00 | 0.00 | 85 | 1016.1 |
| 20260906123506 | 68 | 68 | 10.4 | 13.9 | 0.00 | 0.00 | 0.00 | 86 | 1016.1 |
| 20260906123006 | 68 | 61 | 10.4 | 13.9 | 0.00 | 0.00 | 0.00 | 86 | 1016.1 |
| 20260906122505 | 68 | 62 | 10.4 | 13.9 | 0.00 | 0.00 | 0.00 | 86 | 1015.6 |
| 20260906122007 | 68 | 63 | 10.4 | 12.2 | 0.00 | 0.00 | 0.00 | 86 | 1016.1 |
| 20260906121506 | 68 | 64 | 10.4 | 13.9 | 0.00 | 0.00 | 0.00 | 86 | 1016.1 |
| 20260906121007 | 68 | 75 | 10.4 | 13.9 | 0.00 | 0.00 | 0.00 | 86 | 1015.6 |
| 20260906120506 | 68 | 56 | 7.8 | 13.9 | 0.00 | 0.00 | 0.00 | 87 | 1015.1 |
| 20260906120005 | 68 | 65 | 7.8 | 12.2 | 0.00 | 0.00 | 0.00 | 87 | 1015.6 |
| 20260906115505 | 68 | 50 | 7.8 | 12.2 | 0.00 | 0.00 | 0.00 | 87 | 1015.1 |
| 20260906115006 | 68 | 52 | 7.8 | 12.2 | 0.00 | 0.00 | 0.00 | 87 | 1015.1 |
| 20260906114505 | 68 | 56 | 7.8 | 10.4 | 0.00 | 0.00 | 0.00 | 87 | 1015.1 |
| 20260906113506 | 68 | 60 | 7.8 | 10.4 | 0.00 | 0.00 | 0.00 | 87 | 1015.1 |
| 20260906113006 | 68 | 60 | 7.8 | 10.4 | 0.00 | 0.00 | 0.00 | 87 | 1015.1 |
| 20260906112508 | 68 | 69 | 7.8 | 10.4 | 0.00 | 0.00 | 0.00 | 87 | 1015.1 |
| 20260906112009 | 68 | 51 | 7.8 | 10.4 | 0.00 | 0.00 | 0.00 | 87 | 1015.0 |
| 20260906111505 | 68 | 54 | 6.1 | 7.8 | 0.00 | 0.00 | 0.00 | 87 | 1015.0 |
| 20260906111006 | 68 | 52 | 6.1 | 7.8 | 0.00 | 0.00 | 0.00 | 87 | 1015.1 |
| 20260906110506 | 68 | 63 | 6.1 | 7.8 | 0.00 | 0.00 | 0.00 | 87 | 1014.1 |
| 20260906110006 | 68 | 50 | 6.1 | 7.8 | 0.00 | 0.00 | 0.00 | 87 | 1014.2 |
| 20260906105507 | 68 | 59 | 6.1 | 7.8 | 0.00 | 0.00 | 0.00 | 86 | 1014.1 |
| 20260906105009 | 68 | 62 | 6.1 | 7.8 | 0.00 | 0.00 | 0.00 | 86 | 1014.1 |
| 20260906103508 | 68 | 62 | 5.2 | 7.8 | 0.00 | 0.00 | 0.00 | 86 | 1014.1 |
| 20260906103009 | 68 | 61 | 6.1 | 7.8 | 0.00 | 0.00 | 0.00 | 85 | 1014.1 |
| 20260906102507 | 68 | 57 | 6.1 | 7.8 | 0.00 | 0.00 | 0.00 | 85 | 1014.1 |
| 20260906102008 | 68 | 63 | 4.3 | 7.8 | 0.00 | 0.00 | 0.00 | 85 | 1014.1 |
| 20260906101007 | 68 | 47 | 4.3 | 6.1 | 0.00 | 0.00 | 0.00 | 85 | 1014.1 |
| 20260906100508 | 68 | 40 | 4.3 | 7.8 | 0.00 | 0.00 | 0.00 | 85 | 1014.1 |
| 20260906100007 | 68 | 36 | 4.3 | 7.8 | 0.00 | 0.00 | 0.00 | 85 | 1014.1 |
| 20260906095008 | 68 | 45 | 4.3 | 6.1 | 0.00 | 0.00 | 0.00 | 84 | 1013.9 |
| 20260906094507 | 68 | 41 | 4.3 | 7.8 | 0.00 | 0.00 | 0.00 | 84 | 1014.1 |
| 20260906094008 | 68 | 74 | 4.3 | 7.8 | 0.00 | 0.00 | 0.00 | 84 | 1014.1 |
| 20260906093507 | 68 | 45 | 4.3 | 7.8 | 0.00 | 0.00 | 0.00 | 84 | 1013.9 |
| 20260906093008 | 68 | 55 | 4.3 | 10.4 | 0.00 | 0.00 | 0.00 | 84 | 1013.7 |
| 20260906092507 | 68 | 53 | 6.1 | 10.4 | 0.00 | 0.00 | 0.00 | 83 | 1013.1 |
| 20260906092007 | 69 | 52 | 4.3 | 7.8 | 0.00 | 0.00 | 0.00 | 84 | 1013.1 |
| 20260906091507 | 69 | 47 | 6.1 | 7.8 | 0.00 | 0.00 | 0.00 | 83 | 1013.1 |
| 20260906090507 | 68 | 46 | 4.3 | 6.1 | 0.00 | 0.00 | 0.00 | 83 | 1013.1 |
| 20260906090007 | 69 | 49 | 4.3 | 7.8 | 0.00 | 0.00 | 0.00 | 83 | 1013.1 |
| 20260906085506 | 69 | 50 | 4.3 | 7.8 | 0.00 | 0.00 | 0.00 | 83 | 1013.1 |
| 20260906085008 | 69 | 34 | 4.3 | 7.8 | 0.00 | 0.00 | 0.00 | 83 | 1013.1 |
| 20260906083508 | 69 | 38 | 4.3 | 6.1 | 0.00 | 0.00 | 0.00 | 82 | 1013.1 |
| 20260906083008 | 69 | 51 | 5.2 | 7.8 | 0.00 | 0.00 | 0.00 | 82 | 1013.1 |
| 20260906081506 | 69 | 51 | 4.3 | 7.8 | 0.00 | 0.00 | 0.00 | 81 | 1013.1 |
| 20260906081008 | 69 | 52 | 4.3 | 7.8 | 0.00 | 0.00 | 0.00 | 81 | 1013.1 |
| 20260906080507 | 69 | 52 | 4.3 | 7.8 | 0.00 | 0.00 | 0.00 | 80 | 1013.1 |
| 20260906080006 | 69 | 57 | 4.3 | 7.8 | 0.00 | 0.00 | 0.00 | 80 | 1013.1 |
| 20260906075007 | 69 | 54 | 4.3 | 7.8 | 0.00 | 0.00 | 0.00 | 80 | 1013.1 |
| 20260906074507 | 69 | 41 | 6.1 | 7.8 | 0.00 | 0.00 | 0.00 | 80 | 1013.1 |
| 20260906074008 | 69 | 48 | 6.1 | 7.8 | 0.00 | 0.00 | 0.00 | 80 | 1013.1 |
| 20260906073507 | 69 | 41 | 4.3 | 7.8 | 0.00 | 0.00 | 0.00 | 80 | 1013.1 |
| 20260906073008 | 69 | 54 | 4.3 | 7.8 | 0.00 | 0.00 | 0.00 | 80 | 1013.1 |
| 20260906072507 | 69 | 30 | 4.3 | 6.1 | 0.00 | 0.00 | 0.00 | 80 | 1013.1 |
| 20260906071507 | 70 | 54 | 4.3 | 7.8 | 0.00 | 0.00 | 0.00 | 80 | 1013.1 |
| 20260906071008 | 70 | 56 | 4.3 | 6.1 | 0.00 | 0.00 | 0.00 | 79 | 1013.1 |
| 20260906070507 | 70 | 49 | 3.5 | 6.1 | 0.00 | 0.00 | 0.00 | 79 | 1013.1 |
| 20260906070006 | 70 | 41 | 4.3 | 6.1 | 0.00 | 0.00 | 0.00 | 79 | 1013.1 |
| 20260906065507 | 70 | 58 | 4.3 | 6.1 | 0.00 | 0.00 | 0.00 | 79 | 1013.1 |
| 20260906065007 | 70 | 48 | 4.3 | 6.1 | 0.00 | 0.00 | 0.00 | 79 | 1013.1 |
| 20260906064507 | 70 | 65 | 4.3 | 6.1 | 0.00 | 0.00 | 0.00 | 79 | 1013.1 |
| 20260906064007 | 70 | 62 | 4.3 | 6.1 | 0.00 | 0.00 | 0.00 | 79 | 1013.1 |
| 20260906063507 | 70 | 52 | 4.3 | 6.1 | 0.00 | 0.00 | 0.00 | 79 | 1013.1 |
| 20260906063007 | 70 | 57 | 4.3 | 6.1 | 0.00 | 0.00 | 0.00 | 79 | 1013.1 |
| 20260906062507 | 70 | 65 | 6.1 | 6.1 | 0.00 | 0.00 | 0.00 | 79 | 1013.1 |
| 20260906062007 | 70 | 59 | 4.3 | 6.1 | 0.00 | 0.00 | 0.00 | 79 | 1013.1 |
| 20260906061507 | 70 | 44 | 6.1 | 6.1 | 0.00 | 0.00 | 0.00 | 79 | 1013.1 |
| 20260906061007 | 71 | 41 | 6.1 | 7.8 | 0.00 | 0.00 | 0.00 | 79 | 1013.1 |
| 20260906060507 | 71 | 61 | 6.1 | 7.8 | 0.00 | 0.00 | 0.00 | 79 | 1013.1 |
| 20260906060006 | 71 | 61 | 6.1 | 7.8 | 0.00 | 0.00 | 0.00 | 79 | 1013.1 |
| 20260906055506 | 71 | 49 | 6.1 | 7.8 | 0.00 | 0.00 | 0.00 | 79 | 1013.1 |
| 20260906055007 | 71 | 44 | 6.1 | 10.4 | 0.00 | 0.00 | 0.00 | 79 | 1013.1 |
| 20260906054007 | 71 | 56 | 6.1 | 6.1 | 0.00 | 0.00 | 0.00 | 80 | 1013.1 |
| 20260906053507 | 71 | 63 | 6.1 | 7.8 | 0.00 | 0.00 | 0.00 | 81 | 1013.1 |
| 20260906053007 | 71 | 60 | 6.1 | 7.8 | 0.00 | 0.00 | 0.00 | 81 | 1013.1 |
| 20260906052506 | 71 | 45 | 6.1 | 7.8 | 0.00 | 0.00 | 0.00 | 80 | 1013.1 |
| 20260906052008 | 71 | 56 | 6.1 | 7.8 | 0.00 | 0.00 | 0.00 | 81 | 1013.1 |
| 20260906051507 | 71 | 64 | 6.1 | 10.4 | 0.00 | 0.00 | 0.00 | 80 | 1013.1 |
| 20260906050007 | 71 | 61 | 4.3 | 6.1 | 0.00 | 0.00 | 0.00 | 80 | 1013.1 |
| 20260906045506 | 71 | 53 | 4.3 | 6.1 | 0.00 | 0.00 | 0.00 | 79 | 1013.1 |
| 20260906045007 | 71 | 49 | 4.3 | 6.1 | 0.00 | 0.00 | 0.00 | 79 | 1013.1 |
| 20260906044507 | 71 | 43 | 4.3 | 6.1 | 0.00 | 0.00 | 0.00 | 79 | 1013.1 |
| 20260906044007 | 71 | 28 | 4.3 | 4.3 | 0.00 | 0.00 | 0.00 | 79 | 1013.1 |
| 20260906043507 | 71 | 44 | 4.3 | 4.3 | 0.00 | 0.00 | 0.00 | 79 | 1012.9 |
| 20260906043007 | 71 | 38 | 4.3 | 6.1 | 0.00 | 0.00 | 0.00 | 79 | 1012.7 |
| 20260906042507 | 71 | 28 | 4.3 | 7.8 | 0.00 | 0.00 | 0.00 | 79 | 1013.1 |
| 20260906041506 | 71 | 51 | 4.3 | 6.1 | 0.00 | 0.00 | 0.00 | 80 | 1013.1 |
| 20260906041007 | 71 | 58 | 3.5 | 6.1 | 0.00 | 0.00 | 0.00 | 81 | 1012.7 |
| 20260906040507 | 71 | 32 | 4.3 | 6.1 | 0.00 | 0.00 | 0.00 | 81 | 1012.7 |
| 20260906040006 | 71 | 23 | 4.3 | 7.8 | 0.00 | 0.00 | 0.00 | 81 | 1013.1 |
| 20260906035507 | 71 | 24 | 5.2 | 7.8 | 0.00 | 0.00 | 0.00 | 82 | 1012.6 |
| 20260906035007 | 71 | 5 | 6.1 | 7.8 | 0.00 | 0.00 | 0.00 | 82 | 1012.2 |
| 20260906034507 | 71 | 18 | 6.1 | 10.4 | 0.00 | 0.00 | 0.00 | 83 | 1012.1 |
| 20260906033507 | 71 | 18 | 6.1 | 10.4 | 0.00 | 0.00 | 0.00 | 83 | 1012.1 |
| 20260906033007 | 71 | 9 | 7.8 | 10.4 | 0.00 | 0.00 | 0.00 | 83 | 1012.1 |
| 20260906032007 | 71 | 346 | 4.3 | 7.8 | 0.00 | 0.00 | 0.00 | 82 | 1012.1 |
| 20260906031007 | 71 | 342 | 4.3 | 7.8 | 0.00 | 0.00 | 0.00 | 83 | 1012.1 |
| 20260906030506 | 71 | 354 | 4.3 | 7.8 | 0.00 | 0.00 | 0.00 | 83 | 1012.1 |
| 20260906030006 | 71 | 48 | 4.3 | 7.8 | 0.00 | 0.00 | 0.00 | 83 | 1012.1 |
| 20260906025507 | 70 | 314 | 0.9 | 6.1 | 0.00 | 0.00 | 0.00 | 83 | 1012.1 |
| 20260906024507 | 69 | 353 | 1.7 | 4.3 | 0.00 | 0.00 | 0.00 | 83 | 1012.1 |
| 20260906024007 | 69 | 311 | 1.7 | 4.3 | 0.00 | 0.00 | 0.00 | 83 | 1012.1 |
| 20260906023507 | 69 | 288 | 1.7 | 4.3 | 0.00 | 0.00 | 0.00 | 83 | 1012.1 |
| 20260906022506 | 69 | 294 | 1.7 | 4.3 | 0.00 | 0.00 | 0.00 | 83 | 1012.1 |
| 20260906022007 | 69 | 293 | 1.7 | 4.3 | 0.00 | 0.00 | 0.00 | 83 | 1012.1 |
| 20260906021506 | 69 | 283 | 1.7 | 4.3 | 0.00 | 0.00 | 0.00 | 83 | 1012.1 |
| 20260906021007 | 69 | 285 | 0.9 | 1.7 | 0.00 | 0.00 | 0.00 | 83 | 1012.1 |
| 20260906020507 | 69 | 274 | 0.9 | 4.3 | 0.00 | 0.00 | 0.00 | 83 | 1012.1 |
| 20260906020006 | 69 | 267 | 1.7 | 4.3 | 0.00 | 0.00 | 0.00 | 83 | 1012.1 |
| 20260906015507 | 69 | 261 | 1.7 | 4.3 | 0.00 | 0.00 | 0.00 | 83 | 1012.1 |
| 20260906015008 | 69 | 279 | 4.3 | 4.3 | 0.00 | 0.00 | 0.00 | 83 | 1012.1 |
| 20260906014506 | 69 | 280 | 4.3 | 4.3 | 0.00 | 0.00 | 0.00 | 83 | 1012.1 |
| 20260906014007 | 69 | 270 | 4.3 | 4.3 | 0.00 | 0.00 | 0.00 | 82 | 1012.1 |
| 20260906013506 | 70 | 263 | 1.7 | 4.3 | 0.00 | 0.00 | 0.00 | 81 | 1012.1 |
| 20260906013007 | 70 | 276 | 1.7 | 4.3 | 0.00 | 0.00 | 0.00 | 81 | 1012.1 |
| 20260906012506 | 70 | 265 | 0.9 | 4.3 | 0.00 | 0.00 | 0.00 | 80 | 1012.1 |
| 20260906012007 | 70 | 304 | 0.0 | 4.3 | 0.00 | 0.00 | 0.00 | 79 | 1012.1 |
| 20260906011507 | 71 | 297 | 0.9 | 4.3 | 0.00 | 0.00 | 0.00 | 79 | 1012.1 |
| 20260906005506 | 71 | 314 | 1.7 | 6.1 | 0.00 | 0.00 | 0.00 | 76 | 1012.1 |
| 20260906005007 | 71 | 21 | 0.0 | 6.1 | 0.00 | 0.00 | 0.00 | 76 | 1012.1 |
| 20260906004507 | 71 | 287 | 2.6 | 6.1 | 0.00 | 0.00 | 0.00 | 76 | 1012.1 |
| 20260906004007 | 71 | 344 | 1.7 | 4.3 | 0.00 | 0.00 | 0.00 | 77 | 1012.1 |
| 20260906003507 | 71 | 357 | 1.7 | 4.3 | 0.00 | 0.00 | 0.00 | 76 | 1012.1 |
| 20260906003007 | 71 | 341 | 1.7 | 4.3 | 0.00 | 0.00 | 0.00 | 76 | 1012.1 |
| 20260906002506 | 71 | 347 | 0.9 | 4.3 | 0.00 | 0.00 | 0.00 | 76 | 1012.1 |
| 20260906002007 | 71 | 278 | 0.0 | 4.3 | 0.00 | 0.00 | 0.00 | 76 | 1012.1 |
| 20260906001007 | 71 | 314 | 0.0 | 4.3 | 0.00 | 0.00 | 0.00 | 76 | 1012.1 |
| 20260906000006 | 71 | 0 | 0.0 | 4.3 | 0.00 | 0.00 | 0.00 | 75 | 1012.1 |
| 20260905235507 | 71 | 1 | 0.9 | 4.3 | 0.00 | 0.00 | 0.00 | 76 | 1012.1 |
| 20260905235007 | 71 | 325 | 0.0 | 4.3 | 0.00 | 0.00 | 0.00 | 76 | 1012.1 |
| 20260905234506 | 71 | 11 | 0.9 | 1.7 | 0.00 | 0.00 | 0.00 | 76 | 1012.1 |
| 20260905234007 | 71 | 13 | 0.0 | 4.3 | 0.00 | 0.00 | 0.00 | 75 | 1012.1 |
| 20260905233007 | 71 | 19 | 0.9 | 4.3 | 0.00 | 0.00 | 0.00 | 75 | 1012.1 |
| 20260905232506 | 71 | 359 | 0.0 | 4.3 | 0.00 | 0.00 | 0.00 | 74 | 1012.1 |
| 20260905232007 | 71 | 327 | 0.0 | 4.3 | 0.00 | 0.00 | 0.00 | 74 | 1012.1 |
| 20260905231506 | 71 | 348 | 0.0 | 1.7 | 0.00 | 0.00 | 0.00 | 73 | 1012.1 |
| 20260905231007 | 71 | 12 | 0.0 | 1.7 | 0.00 | 0.00 | 0.00 | 73 | 1012.1 |
| 20260905230507 | 72 | 3 | 0.0 | 1.7 | 0.00 | 0.00 | 0.00 | 72 | 1012.1 |
| 20260905230007 | 32 | 28 | 0.0 | 0.0 | 0.00 | 0.00 | 0.00 | 100 | |
| 20260905225007 | 73 | 28 | 0.0 | 4.3 | 0.00 | 0.00 | 0.00 | 72 | 1012.1 |
| 20260905224506 | 73 | 21 | 0.9 | 4.3 | 0.00 | 0.00 | 0.00 | 72 | 1012.1 |
| 20260905224007 | 74 | 4 | 0.0 | 1.7 | 0.00 | 0.00 | 0.00 | 71 | 1012.1 |
| 20260905223507 | 74 | 48 | 0.0 | 1.7 | 0.00 | 0.00 | 0.00 | 71 | 1012.1 |
| 20260905223007 | 74 | 56 | 0.0 | 4.3 | 0.00 | 0.00 | 0.00 | 71 | 1012.1 |
| 20260905222507 | 74 | 42 | 1.7 | 4.3 | 0.00 | 0.00 | 0.00 | 71 | 1012.1 |
| 20260905222007 | 75 | 57 | 1.7 | 4.3 | 0.00 | 0.00 | 0.00 | 70 | 1012.1 |
| 20260905221506 | 75 | 58 | 0.9 | 4.3 | 0.00 | 0.00 | 0.00 | 70 | 1012.1 |
| 20260905221007 | 75 | 43 | 0.0 | 4.3 | 0.00 | 0.00 | 0.00 | 71 | 1012.1 |
| 20260905220507 | 75 | 32 | 0.0 | 1.7 | 0.00 | 0.00 | 0.00 | 71 | 1012.1 |
| 20260905220007 | 75 | 46 | 0.0 | 0.0 | 0.00 | 0.00 | 0.00 | 70 | 1011.8 |
| 20260905215506 | 75 | 31 | 0.0 | 4.3 | 0.00 | 0.00 | 0.00 | 71 | 1011.1 |
| 20260905214506 | 74 | 36 | 1.7 | 4.3 | 0.00 | 0.00 | 0.00 | 71 | 1011.4 |
| 20260905214006 | 74 | 27 | 0.9 | 4.3 | 0.00 | 0.00 | 0.00 | 71 | 1011.1 |
| 20260905212506 | 74 | 9 | 1.7 | 4.3 | 0.00 | 0.00 | 0.00 | 72 | 1011.1 |
| 20260905212007 | 74 | 41 | 1.7 | 6.1 | 0.00 | 0.00 | 0.00 | 72 | 1011.1 |
| 20260905211506 | 73 | 20 | 4.3 | 6.1 | 0.00 | 0.00 | 0.00 | 72 | 1011.1 |